Le Mars, IA

9:11 AM CDT on March 30, 2017 (GMT -0500)
Le Mars Municipal

Weather History for KLRJ - December, 2012

Change the Weather History Date:

Wednesday, December 5, 2012

  Actual Average Record
Temperature  
Mean Temperature 40 °F -  
Max Temperature 55 °F 35 °F 66 °F (1997)
Min Temperature 26 °F 17 °F -5 °F (1991)
Degree Days  
Heating Degree Days 24    
Moisture  
Dew Point 19 °F    
Average Humidity 43    
Maximum Humidity 69    
Minimum Humidity 23    
Precipitation  
Precipitation 0.00 in - - ()
Sea Level Pressure  
Sea Level Pressure 30.05 in    
Wind  
Wind Speed 11 mph (SSE)    
Max Wind Speed 25 mph    
Max Gust Speed 33 mph    
Visibility 10 miles    
Events      
Averages and records for this station are not official NWS values.
T = Trace of Precipitation, MM = Missing Value Source: NWS Daily Summary

Daily Weather History Graph

Daily Weather History Graph

Search for Another Location

Airport or City:

Trip Planner

Search our weather history database for the weather conditions in past years. The results will help you decide how hot, cold, wet, or windy it might be!

Date:

Astronomy

Dec. 05, 2012 Rise Set
Actual Time 7:40 AM CST 4:50 PM CST
Civil Twilight 7:08 AM CST 5:22 PM CST
Nautical Twilight 6:32 AM CST 5:58 PM CST
Astronomical Twilight 5:58 AM CST 6:32 PM CST
Moon 11:48 PM CST (12/5) 11:57 AM CST (12/5)
Length of Visible Light 10h 14m
Length of Day
9h 10m
Waning Gibbous, 59% of the Moon is Illuminated
Dec 5
Waning Gibbous
Dec 6
Last Quarter
Dec 13
New
Dec 19
First Quarter
Dec 28
Full

Hourly Weather History & Observations

Time (CST) Temp. Windchill Dew Point Humidity Pressure Visibility Wind Dir Wind Speed Gust Speed Precip Events Conditions
12:15 AM 30.2 °F 25.4 °F 17.6 °F 60% 30.32 in 10.0 mi ENE 4.6 mph - N/A   Clear
12:35 AM 30.2 °F 25.4 °F 17.6 °F 60% 30.33 in 10.0 mi East 4.6 mph - N/A   Clear
12:55 AM 30.2 °F 23.4 °F 17.6 °F 60% 30.32 in 10.0 mi East 6.9 mph - N/A   Clear
1:15 AM 28.4 °F 21.2 °F 17.6 °F 64% 30.32 in 10.0 mi East 6.9 mph - N/A   Clear
1:35 AM 28.4 °F 19.7 °F 17.6 °F 64% 30.31 in 10.0 mi East 9.2 mph - N/A   Clear
1:55 AM 28.4 °F 21.2 °F 17.6 °F 64% 30.31 in 10.0 mi East 6.9 mph - N/A   Clear
2:15 AM 28.4 °F 24.6 °F 15.8 °F 59% 30.30 in 10.0 mi East 3.5 mph - N/A   Clear
2:35 AM 28.4 °F 20.4 °F 15.8 °F 59% 30.29 in 10.0 mi ESE 8.1 mph - N/A   Clear
2:55 AM 28.4 °F 21.2 °F 15.8 °F 59% 30.30 in 10.0 mi ESE 6.9 mph - N/A   Clear
3:15 AM 26.6 °F 21.2 °F 15.8 °F 64% 30.30 in 10.0 mi SE 4.6 mph - N/A   Clear
3:35 AM 26.6 °F 19.1 °F 15.8 °F 64% 30.29 in 10.0 mi SE 6.9 mph - N/A   Clear
3:55 AM 26.6 °F 21.2 °F 15.8 °F 64% 30.29 in 10.0 mi South 4.6 mph - N/A   Clear
4:15 AM 26.6 °F 22.6 °F 15.8 °F 64% 30.29 in 10.0 mi SE 3.5 mph - N/A   Clear
4:35 AM 26.6 °F 22.6 °F 15.8 °F 64% 30.27 in 10.0 mi South 3.5 mph - N/A   Clear
4:55 AM 26.6 °F - 15.8 °F 64% 30.27 in 10.0 mi Calm Calm - N/A   Clear
5:15 AM 26.6 °F - 15.8 °F 64% 30.26 in 10.0 mi Calm Calm - N/A   Clear
5:35 AM 26.6 °F 22.6 °F 15.8 °F 64% 30.26 in 10.0 mi SSE 3.5 mph - N/A   Clear
5:55 AM 26.6 °F 22.6 °F 15.8 °F 64% 30.25 in 10.0 mi SSE 3.5 mph - N/A   Clear
6:15 AM 26.6 °F 22.6 °F 15.8 °F 64% 30.24 in 10.0 mi South 3.5 mph - N/A   Clear
6:35 AM 26.6 °F 21.2 °F 17.6 °F 69% 30.23 in 10.0 mi South 4.6 mph - N/A   Clear
6:55 AM 26.6 °F 21.2 °F 17.6 °F 69% 30.22 in 10.0 mi South 4.6 mph - N/A   Clear
8:55 AM 30.2 °F 21.9 °F 19.4 °F 64% 30.19 in 10.0 mi SSE 9.2 mph - N/A   Clear
9:15 AM 32.0 °F 21.6 °F 19.4 °F 60% 30.18 in 10.0 mi South 15.0 mph - N/A   Clear
9:35 AM 33.8 °F 23.2 °F 21.2 °F 60% 30.17 in 10.0 mi SSE 17.3 mph 20.7 mph N/A   Clear
9:55 AM 35.6 °F 25.9 °F 21.2 °F 56% 30.16 in 10.0 mi SSE 16.1 mph - N/A   Clear
10:15 AM 37.4 °F 28.2 °F 21.2 °F 52% 30.15 in 10.0 mi SSE 16.1 mph - N/A   Clear
10:35 AM 39.2 °F 30.5 °F 21.2 °F 49% 30.14 in 10.0 mi South 16.1 mph 20.7 mph N/A   Clear
10:55 AM 39.2 °F 30.2 °F 23.0 °F 52% 30.13 in 10.0 mi South 17.3 mph - N/A   Clear
11:15 AM 42.8 °F 34.3 °F 23.0 °F 46% 30.11 in 10.0 mi South 19.6 mph 24.2 mph N/A   Clear
11:35 AM 42.8 °F 35.1 °F 23.0 °F 46% 30.09 in 10.0 mi South 16.1 mph 25.3 mph N/A   Clear
11:55 AM 44.6 °F 37.4 °F 23.0 °F 43% 30.07 in 10.0 mi South 16.1 mph 20.7 mph N/A   Clear
12:15 PM 46.4 °F 39.8 °F 21.2 °F 37% 30.06 in 10.0 mi South 16.1 mph 20.7 mph N/A   Clear
12:55 PM 48.2 °F - 21.2 °F 34% 30.02 in 10.0 mi South 16.1 mph 23.0 mph N/A   Clear
1:15 PM 50.0 °F - 21.2 °F 32% 30.01 in 10.0 mi South 15.0 mph 24.2 mph N/A   Clear
1:35 PM 51.8 °F - 19.4 °F 28% 29.98 in 10.0 mi South 19.6 mph 29.9 mph N/A   Clear
1:55 PM 53.6 °F - 19.4 °F 26% 29.97 in 10.0 mi South 19.6 mph 27.6 mph N/A   Clear
2:15 PM 53.6 °F - 19.4 °F 26% 29.96 in 10.0 mi South 17.3 mph 27.6 mph N/A   Clear
2:35 PM 53.6 °F - 19.4 °F 26% 29.94 in 10.0 mi South 17.3 mph 29.9 mph N/A   Clear
2:55 PM 53.6 °F - 19.4 °F 26% 29.92 in 10.0 mi South 18.4 mph 28.8 mph N/A   Clear
3:15 PM 53.6 °F - 19.4 °F 26% 29.91 in 10.0 mi South 13.8 mph - N/A   Clear
3:35 PM 55.4 °F - 17.6 °F 23% 29.90 in 10.0 mi South 21.9 mph 27.6 mph N/A   Clear
3:55 PM 53.6 °F - 19.4 °F 26% 29.89 in 10.0 mi South 18.4 mph 26.5 mph N/A   Clear
4:15 PM 53.6 °F - 19.4 °F 26% 29.89 in 10.0 mi South 19.6 mph 24.2 mph N/A   Clear
4:35 PM 53.6 °F - 21.2 °F 28% 29.88 in 10.0 mi South 12.7 mph 20.7 mph N/A   Clear
4:55 PM 51.8 °F - 21.2 °F 30% 29.87 in 10.0 mi South 12.7 mph - N/A   Clear
5:15 PM 51.8 °F - 21.2 °F 30% 29.86 in 10.0 mi South 17.3 mph - N/A   Clear
5:35 PM 51.8 °F - 21.2 °F 30% 29.86 in 10.0 mi South 17.3 mph - N/A   Clear
5:55 PM 53.6 °F - 21.2 °F 28% 29.86 in 10.0 mi South 17.3 mph 27.6 mph N/A   Clear
6:15 PM 53.6 °F - 21.2 °F 28% 29.85 in 10.0 mi South 18.4 mph 23.0 mph N/A   Clear
6:35 PM 53.6 °F - 21.2 °F 28% 29.85 in 10.0 mi South 19.6 mph 26.5 mph N/A   Scattered Clouds
6:55 PM 53.6 °F - 21.2 °F 28% 29.84 in 10.0 mi South 17.3 mph 24.2 mph N/A   Clear
7:15 PM 53.6 °F - 19.4 °F 26% 29.83 in 10.0 mi South 20.7 mph 25.3 mph N/A   Clear
7:35 PM 53.6 °F - 19.4 °F 26% 29.83 in 10.0 mi South 19.6 mph - N/A   Clear
7:55 PM 53.6 °F - 17.6 °F 24% 29.82 in 10.0 mi South 23.0 mph 31.1 mph N/A   Clear
8:15 PM 53.6 °F - 17.6 °F 24% 29.82 in 10.0 mi South 25.3 mph 33.4 mph N/A   Clear
8:35 PM 53.6 °F - 17.6 °F 24% 29.82 in 10.0 mi SSW 23.0 mph 32.2 mph N/A   Clear
8:55 PM 53.6 °F - 17.6 °F 24% 29.81 in 10.0 mi SSW 20.7 mph 29.9 mph N/A   Clear
9:15 PM 53.6 °F - 19.4 °F 26% 29.81 in 10.0 mi SSW 19.6 mph 28.8 mph N/A   Clear
9:35 PM 53.6 °F - 17.6 °F 24% 29.81 in 10.0 mi SSW 21.9 mph 32.2 mph N/A   Scattered Clouds
9:55 PM 53.6 °F - 17.6 °F 24% 29.82 in 10.0 mi SSW 20.7 mph 27.6 mph N/A   Scattered Clouds
10:15 PM 53.6 °F - 17.6 °F 24% 29.81 in 10.0 mi SSW 19.6 mph 27.6 mph N/A   Scattered Clouds
10:35 PM 53.6 °F - 17.6 °F 24% 29.80 in 10.0 mi South 23.0 mph 31.1 mph N/A   Clear
10:55 PM 53.6 °F - 17.6 °F 24% 29.80 in 10.0 mi South 21.9 mph 33.4 mph N/A   Mostly Cloudy
11:15 PM 53.6 °F - 17.6 °F 24% 29.79 in 10.0 mi SSW 23.0 mph 31.1 mph N/A   Overcast